Regional Weather Roundup
Issued by NWS

Home | Current Version | Previous Version | Text Only | Print | Product List | Glossary On
Versions: 1 2 3 4 5 6 7 8 9 10 11 12 13 14 15 16 17 18 19 20 21 22 23 24 25 26 27 28 29 30 31 32 33 34 35 36 37 38 39 40 41 42 43 44 45 46 47
000
ASUS46 KSEW 080410
RWRWA

WASHINGTON REGIONAL WEATHER ROUNDUP
NATIONAL WEATHER SERVICE SEATTLE WA
800 PM PST SUN FEB 07 2016

NOTE:"FAIR" INDICATES FEW OR NO CLOUDS BELOW 12,000 FEET WITH NO
SIGNIFICANT WEATHER AND/OR OBSTRUCTIONS TO VISIBILITY.

WAZ505-507>509-080500-
SEATTLE, TACOMA, EVERETT, AND VICINITY

CITY           SKY/WX    TMP DP  RH WIND       PRES   REMARKS
EVERETT        CLEAR     42  36  79 N5        30.52F
BOEING FIELD   PTCLDY    46  41  82 CALM      30.53S
RENTON         CLEAR     48  39  71 NW9       30.52S
SEATAC AIRPORT PTCLDY    44  37  76 N7        30.52S
JBLM-MCCHORD   CLEAR     40  39  99 CALM      30.51S
PUYALLUP       FAIR      39  39 100 CALM      30.51S
BREMERTON      CLEAR     36  34  93 CALM      30.55F
JBLM-FT LEWIS  CLEAR     42  42  98 MISG      30.50F
TACOMA NARROWS CLEAR     44  37  76 N8        30.51F
$$

WAZ001-503-506-510-514-515-080500-
NORTH INTERIOR

CITY           SKY/WX    TMP DP  RH WIND       PRES   REMARKS
BELLINGHAM     CLOUDY    46  36  68 N7        30.54F
FRIDAY HARBOR  CLOUDY    46  39  76 N7        30.56F
EASTSOUND      PTCLDY    46  41  81 N8        30.55S
PORT ANGELES   CLEAR     39  36  89 S3        30.55S
EDIZ HOOK      FAIR      42  39  87 CALM      30.56S
PORT TOWNSEND  FAIR      39  37  93 CALM      30.55F
NAS WHIDBEY    CLOUDY    46  40  79 CALM      30.58F
ARLINGTON      CLEAR     41  34  75 CALM      30.55S
BURLINGTON     CLOUDY    46  37  71 NW6       30.54F
$$

WAZ020-022-039-040-504-511-512-080500-
SOUTHWEST INTERIOR

CITY           SKY/WX    TMP DP  RH WIND       PRES   REMARKS
SHELTON        CLEAR     40  38  93 CALM      30.49F
OLYMPIA        CLEAR     44  39  82 N6        30.51S
CHEHALIS       FAIR      45  39  81 N6        30.49F
KELSO          CLEAR     48  43  81 CALM      30.48S
VANCOUVER      CLEAR     49  41  74 CALM      30.45F
SCAPPOOSE, OR  CLEAR     46  45  96 W3        30.44F
PORTLAND, OR   PTCLDY    51  39  63 E6        30.46F
$$

WAZ021-516-517-080500-
WASHINGTON COAST

CITY           SKY/WX    TMP DP  RH WIND       PRES   REMARKS
FORKS          CLOUDY    49  41  74 NE6       30.47S
HOQUIAM        CLEAR     47  42  83 NE9       30.46F
ASTORIA, OR    CLEAR     51  46  83 E5        30.40F
$$

WAZ019-023-024-040-518-519-080500-
CASCADE MOUNTAINS AND COLUMBIA GORGE

CITY           SKY/WX    TMP DP  RH WIND       PRES   REMARKS
STAMPEDE PASS  NOT AVBL
TROUTDALE, OR  CLEAR     53  38  56 E23G32    30.45F
THE DALLES, OR CLEAR     44  36  73 W5        30.63R
$$

WAZ026-027-041>044-520-521-080500-
EAST SLOPES

CITY           SKY/WX    TMP DP  RH WIND       PRES   REMARKS
OMAK           CLOUDY    30  25  81 N3        30.68R
WENATCHEE      MOCLDY    37  28  70 N3        30.64F
ELLENSBURG     PTCLDY    30  25  81 NE5       30.62F
YAKIMA         CLEAR     38  28  67 W8        30.64S
$$

WAZ028-034-035-080500-
COLUMBIA BASIN

CITY           SKY/WX    TMP DP  RH WIND       PRES   REMARKS
EPHRATA        MOCLDY    37  30  75 NW8       30.62F
MOSES LAKE     MOCLDY    35  30  82 NW5       30.64F
PASCO          PTCLDY    36  32  85 NW3       30.67R
HERMISTON, OR  PTCLDY    40  34  79 NE6       30.62S
$$

WAZ036>038-080500-
NORTHEAST WASHINGTON

CITY           SKY/WX    TMP DP  RH WIND       PRES   REMARKS
SPOKANE GEIGER CLOUDY    38  30  73 NE7       30.62S
SPOKANE FELTS  CLOUDY    41  31  67 CALM      30.64S
FAIRCHILD AFB  CLOUDY    36  31  83 NE3       30.61S
COEURDALENE,ID CLOUDY    36  28  75 NE6       30.61S
DEER PARK      PTCLDY    34  29  82 NE5       30.63F
$$

WAZ029>033-080500-
SOUTHEAST WASHINGTON

CITY           SKY/WX    TMP DP  RH WIND       PRES   REMARKS
PULLMAN        CLOUDY    39  32  76 NE7       30.63R
LEWISTON, ID   PTCLDY    37  31  78 SE5       30.65R
WALLA WALLA    PTCLDY    40  34  79 SE3       30.62S
PENDLETON, OR  PTCLDY    39  33  79 N3        30.60R
$$



USA.gov is the U.S. government's official web portal to all federal, state and local government web resources and services.